Hourly Data Report for October 28, 2018

VICTORIA UNIVERSITY CS
BRITISH COLUMBIA
Current Station Operator: ECCC - MSC

48°27'25.200" N
123°18'16.600" W
60.10 m
1018598
71783
WYJ

Download Data

Hourly Data (October 2018)
Hourly Data Report for October 28, 2018
TIME
LST
Temp Definition
°C
Dew Point Definition
°C
Rel Hum Definition
%
Precip. Amount Definition
mm

Wind Dir Definition
10's deg

Wind Spd Definition
km/h
Visibility Definition
km
Stn Press Definition
kPa
Hmdx Definition


Wind Chill Definition


Weather Definition


00:00 10.3 9.9 98 0.0 9 4   99.81     LegendNANA
01:00 10.3 10.0 98 0.3 7 3   99.83     LegendNANA
02:00 9.6 9.3 98 0.3 18 4   99.85     LegendNANA
03:00 9.5 9.2 98 0.0 28 3   99.96     LegendNANA
04:00 9.8 9.5 98 1.3 17 4   100.03     LegendNANA
05:00 9.1 8.7 98 0.5 22 4   100.00     LegendNANA
06:00 9.8 9.3 97 2.4 22 7   100.12     LegendNANA
07:00 9.7 8.7 93 0.0 24 9   100.21     LegendNANA
08:00 9.4 8.3 92 0.6 24 4   100.30     LegendNANA
09:00 10.1 9.0 93 0.0 23 5   100.28     LegendNANA
10:00 12.0 9.0 82 0.0 25 5   100.39     LegendNANA
11:00 13.4 8.5 72 0.0 15 5   100.52     LegendNANA
12:00 12.0 8.4 79 0.0 12 1   100.58     LegendNANA
13:00 13.7 8.3 70 0.0 15 3   100.55     LegendNANA
14:00 11.4 8.5 83 0.0 15 5   100.57     LegendNANA
15:00 12.8 8.7 76 0.0 16 3   100.59     LegendNANA
16:00 11.6 9.2 85 0.0 11 1   100.59     LegendNANA
17:00 11.1 9.1 87 0.0 12 1   100.59     LegendNANA
18:00 10.2 9.2 94 0.0 3 1   100.59     LegendNANA
19:00 10.0 9.2 95 0.0 8 2   100.58     LegendNANA
20:00 9.6 8.7 94 0.8 19 4   100.64     LegendNANA
21:00 8.8 7.9 94 0.7 28 5   100.64     LegendNANA
22:00 7.2 6.7 96 0.0 32 2   100.69     LegendNANA
23:00 7.2 6.9 97 0.0 11 2   100.77     LegendNANA

Notes on Data Quality.

Legend

  • E = Estimated
  • M = Missing
  • NA = Not Available*
  • [empty] = Indicates an unobserved value
Date modified: